TimeCST,TemperatureF,Dew PointF,Humidity,Sea Level PressureIn,VisibilityMPH,Wind Direction,Wind SpeedMPH,Gust SpeedMPH,PrecipitationIn,Events,Conditions,WindDirDegrees,DateUTC
12:53 AM,41.0,25.0,53,30.22,10.0,SSE,12.7,-,N/A,,Clear,160,2012-11-15 06:53:00
1:53 AM,37.0,25.0,62,30.21,10.0,South,10.4,-,N/A,,Clear,170,2012-11-15 07:53:00
2:53 AM,37.9,25.0,60,30.20,10.0,South,11.5,-,N/A,,Clear,170,2012-11-15 08:53:00
3:53 AM,39.9,25.0,55,30.20,10.0,South,13.8,-,N/A,,Clear,170,2012-11-15 09:53:00
4:53 AM,37.0,24.1,59,30.21,10.0,SSE,10.4,-,N/A,,Clear,160,2012-11-15 10:53:00
5:53 AM,37.0,25.0,62,30.21,10.0,South,12.7,-,N/A,,Clear,170,2012-11-15 11:53:00
6:53 AM,36.0,24.1,62,30.22,10.0,South,11.5,-,N/A,,Clear,170,2012-11-15 12:53:00
7:53 AM,37.9,26.1,62,30.22,10.0,South,10.4,-,N/A,,Clear,170,2012-11-15 13:53:00
8:53 AM,45.0,26.1,48,30.23,10.0,South,12.7,-,N/A,,Clear,170,2012-11-15 14:53:00
9:53 AM,48.9,28.0,44,30.25,10.0,South,12.7,-,N/A,,Clear,180,2012-11-15 15:53:00
10:53 AM,54.0,30.0,40,30.24,10.0,South,15.0,-,N/A,,Clear,170,2012-11-15 16:53:00
11:53 AM,55.9,30.9,39,30.23,10.0,South,13.8,-,N/A,,Clear,190,2012-11-15 17:53:00
12:53 PM,57.9,36.0,44,30.21,10.0,SSW,13.8,-,N/A,,Clear,200,2012-11-15 18:53:00
1:53 PM,59.0,37.9,46,30.20,10.0,SSW,9.2,-,N/A,,Clear,210,2012-11-15 19:53:00
2:53 PM,61.0,39.0,44,30.19,10.0,South,12.7,-,N/A,,Clear,190,2012-11-15 20:53:00
3:53 PM,60.1,37.9,44,30.20,10.0,South,9.2,-,N/A,,Clear,190,2012-11-15 21:53:00
4:53 PM,57.9,37.9,47,30.23,10.0,SW,5.8,-,N/A,,Clear,220,2012-11-15 22:53:00
5:53 PM,55.0,37.0,51,30.26,10.0,East,3.5,-,N/A,,Clear,90,2012-11-15 23:53:00
6:53 PM,52.0,39.0,61,30.29,10.0,ESE,5.8,-,N/A,,Clear,110,2012-11-16 00:53:00
7:53 PM,50.0,41.0,71,30.32,10.0,ESE,8.1,-,N/A,,Clear,120,2012-11-16 01:53:00
8:53 PM,48.0,39.9,74,30.32,10.0,East,6.9,-,N/A,,Clear,100,2012-11-16 02:53:00
9:53 PM,46.0,39.0,76,30.34,10.0,ESE,8.1,-,N/A,,Clear,120,2012-11-16 03:53:00
10:53 PM,46.0,39.0,76,30.35,10.0,SE,9.2,-,N/A,,Clear,130,2012-11-16 04:53:00
11:53 PM,41.0,36.0,82,30.36,10.0,SSE,8.1,-,N/A,,Clear,150,2012-11-16 05:53:00